Location: PACMO
(41.3967°N, 90.3760°W)
Time: 03:51:00
(UTC-05:00)

NOAA 19 - Visible Passes

Search period start: 22 April 2018 00:00
Search period end: 02 May 2018 00:00
Orbit: 841 x 862 km, 99.1° (Epoch: 21 April)

Date Brightness Start Highest point End Pass type
(mag) Time Alt. Az. Time Alt. Az. Time Alt. Az.
22 Apr 6.4 04:47:05 10° NNE 04:52:16 42° E 04:57:25 10° S visible
23 Apr 6.8 04:35:43 10° NNE 04:40:38 33° E 04:45:31 10° SSE visible
24 Apr 7.2 04:24:25 10° NE 04:28:58 26° E 04:33:29 10° SSE visible
25 Apr 7.5 04:13:15 10° NE 04:17:18 21° E 04:21:20 10° SE visible
26 Apr 7.7 04:02:15 10° NE 04:05:36 16° E 04:08:55 10° SE visible
27 Apr 7.9 03:51:38 10° ENE 03:53:52 12° E 03:56:07 10° ESE visible
27 Apr 5.2 05:29:41 10° NNE 05:35:10 82° WNW 05:40:38 10° SSW visible
28 Apr 5.4 05:18:06 10° NNE 05:23:36 79° ESE 05:29:04 10° SSW visible
29 Apr 5.7 05:06:35 10° NNE 05:12:01 63° ESE 05:17:25 10° S visible
30 Apr 6.1 04:55:07 10° NNE 05:00:25 49° E 05:05:41 10° S visible
01 May 6.6 04:43:41 10° NNE 04:48:47 39° E 04:53:51 10° SSE visible
